Flag for U.S.A. Weather past 2 weeks in Cheyenne, Wyoming, U.S.A.

Now
16 °F

Clear.


Feels Like: 3 °F
Forecast: 8 / 38 °F
Wind: 12 mph from West

Location: Cheyenne Airport

Current Time: Mar 5, 2015 at 1:17:58 AM

Latest Report: Mar 5, 2015 at 12:53 AM


Visibility: 10 mi

Pressure: 30.34 "Hg

Humidity: 49%

Dew point: 0 °F

Location of CheyenneLocation

Historic Weather in Cheyenne — Graph

°F

Cheyenne temperature yesterday

Maximum temperature yesterday: 19 °F (at 3:53 PM)
Minimum temperature yesterday: 1 °F (at 6:53 AM)
Average temperature yesterday: 10 °F

Past Weeks' High & Low Weather Summary

 TemperatureHumidityPressure
High56 °F (Feb 19, 12:53 PM)92% (Mar 2, 6:53 AM)30.66 "Hg (Mar 2, 6:53 AM)
Low-1 °F (Feb 28, 2:53 AM)19% (Feb 19, 4:53 PM)29.50 "Hg (Mar 2, 11:53 PM)
Average20 °F67%30.13 "Hg
* Reported Feb 17 11:53 PM — Mar 4 11:53 PM, Cheyenne, Weather by CustomWeather, © 2015

Note: Actual official high and low records may vary slightly from our data, if they occured in-between our weather recording intervals... More about our weather records

Advertising

Cheyenne weather history for previous 24 hours

 ConditionsComfort  
Time TempWeatherWind HumidityBarometerVisibility
11:53 PM
Wed, Mar 4
7 °FClear.3 mph66%30.39 "Hg10 mi
10:53 PM8 °FClear.10 mph60%30.40 "Hg10 mi
9:53 PM5 °FClear.No wind60%30.42 "Hg10 mi
8:53 PM6 °FClear.8 mph60%30.40 "Hg10 mi
7:53 PM8 °FClear.10 mph60%30.40 "Hg10 mi
6:53 PM11 °FClear.7 mph51%30.41 "Hg10 mi
5:53 PM15 °FClear.8 mph38%30.35 "Hg10 mi
4:53 PM18 °FSunny.10 mph35%30.32 "Hg10 mi
3:53 PM19 °FSunny.17 mph32%30.31 "Hg10 mi
2:53 PM18 °FSunny.15 mph35%30.30 "Hg10 mi
1:53 PM18 °FOvercast.14 mph39%30.29 "Hg10 mi
12:53 PM17 °FScattered clouds.6 mph56%30.30 "Hg10 mi
11:53 AM16 °FScattered clouds.5 mph59%30.32 "Hg10 mi
10:53 AM13 °FSunny.6 mph61%30.34 "Hg10 mi
9:53 AM12 °FSunny.9 mph53%30.33 "Hg10 mi
8:53 AM11 °FSunny.10 mph53%30.33 "Hg10 mi
7:53 AM7 °FSunny.7 mph63%30.34 "Hg10 mi
6:53 AM1 °FSunny.7 mph79%30.34 "Hg10 mi
5:53 AM4 °FMostly cloudy.5 mph76%30.30 "Hg10 mi
5:02 AM3 °FLight snow. Overcast.5 mph79%29.99 "Hg2 mi
4:53 AM3 °FLight snow. Mostly cloudy.6 mph76%30.29 "Hg3 mi
3:53 AM2 °FClear.3 mph76%30.26 "Hg10 mi
2:53 AM4 °FOvercast.6 mph80%30.22 "Hg10 mi
1:53 AM5 °FLight snow. Overcast.7 mph80%30.22 "Hg4 mi
1:00 AM7 °FLight snow. Mostly cloudy.10 mph79%29.93 "Hg4 mi
Weather by CustomWeather, © 2015

See weather overviewHow to use our weather pages